Today

Time Wind Dr Wind Spd
mph
Wind Gust
mph
Hum In
%
Humid
%
TempI
F
Temp
F
Raw Bar
in
Tot Rain
in
UV Solar
W/sqm
DailyRain
in
HourRain
in
24HrRain
in
RainRate
in
05/05/26 12:01:18 AM 36 4.0 5.0 52 80 66.5 55.4 29.983 7.14 0.0 0 0.00 0.00 0.00 0.00
05/05/26 12:02:31 AM 36 5.0 6.0 52 80 66.5 55.4 29.981 7.14 0.0 0 0.00 0.00 0.00 0.00
05/05/26 12:03:22 AM 38 5.0 7.0 52 80 66.6 55.3 29.983 7.14 0.0 0 0.00 0.00 0.00 0.00
05/05/26 12:04:34 AM 38 6.0 9.0 52 80 66.6 55.3 29.981 7.14 0.0 0 0.00 0.00 0.00 0.00
05/05/26 12:05:26 AM 35 6.0 9.0 52 80 66.6 55.2 29.983 7.14 0.0 0 0.00 0.00 0.00 0.00
05/05/26 12:06:35 AM 39 4.0 9.0 52 80 66.6 55.2 29.981 7.14 0.0 0 0.00 0.00 0.00 0.00
05/05/26 12:07:26 AM 34 2.0 9.0 52 80 66.6 55.1 29.980 7.14 0.0 0 0.00 0.00 0.00 0.00
05/05/26 12:08:18 AM 36 2.0 9.0 52 81 66.6 55.1 29.978 7.14 0.0 0 0.00 0.00 0.00 0.00
05/05/26 12:09:18 AM 38 2.0 9.0 52 81 66.6 55.1 29.981 7.14 0.0 0 0.00 0.00 0.00 0.00
05/05/26 12:10:31 AM 34 2.0 9.0 52 81 66.6 55.0 29.978 7.14 0.0 0 0.00 0.00 0.00 0.00
05/05/26 12:11:20 AM 37 3.0 9.0 52 81 66.6 55.0 29.981 7.14 0.0 0 0.00 0.00 0.00 0.00
05/05/26 12:12:29 AM 34 4.0 9.0 52 81 66.6 55.0 29.980 7.14 0.0 0 0.00 0.00 0.00 0.00
05/05/26 12:13:21 AM 40 4.0 9.0 52 81 66.6 55.0 29.981 7.14 0.0 0 0.00 0.00 0.00 0.00
05/05/26 12:14:34 AM 32 4.0 9.0 52 81 66.6 55.0 29.980 7.14 0.0 0 0.00 0.00 0.00 0.00
05/05/26 12:15:29 AM 36 2.0 9.0 52 81 66.7 55.0 29.980 7.14 0.0 0 0.00 0.00 0.00 0.00
05/05/26 12:16:20 AM 34 2.0 9.0 52 81 66.7 55.0 29.981 7.14 0.0 0 0.00 0.00 0.00 0.00
05/05/26 12:17:27 AM 35 1.0 9.0 52 81 66.8 54.9 29.980 7.14 0.0 0 0.00 0.00 0.00 0.00
05/05/26 12:18:19 AM 38 2.0 9.0 52 81 66.7 54.9 29.981 7.14 0.0 0 0.00 0.00 0.00 0.00
05/05/26 12:19:31 AM 37 3.0 9.0 52 81 66.7 55.0 29.980 7.14 0.0 0 0.00 0.00 0.00 0.00
05/05/26 12:20:23 AM 39 3.0 9.0 52 81 66.7 54.9 29.981 7.14 0.0 0 0.00 0.00 0.00 0.00
05/05/26 12:21:18 AM 39 1.0 9.0 52 81 66.7 54.9 29.982 7.14 0.0 0 0.00 0.00 0.00 0.00
05/05/26 12:22:24 AM 38 1.0 9.0 52 81 66.7 54.9 29.983 7.14 0.0 0 0.00 0.00 0.00 0.00
05/05/26 12:23:16 AM 39 1.0 9.0 52 81 66.7 54.9 29.978 7.14 0.0 0 0.00 0.00 0.00 0.00
05/05/26 12:24:29 AM 36 2.0 9.0 52 81 66.7 54.9 29.981 7.14 0.0 0 0.00 0.00 0.00 0.00
05/05/26 12:25:20 AM 36 2.0 9.0 52 81 66.7 54.9 29.981 7.14 0.0 0 0.00 0.00 0.00 0.00
05/05/26 12:26:36 AM 34 2.0 9.0 52 81 66.6 54.9 29.981 7.14 0.0 0 0.00 0.00 0.00 0.00
05/05/26 12:27:22 AM 35 1.0 9.0 52 82 66.8 54.8 29.980 7.14 0.0 0 0.00 0.00 0.00 0.00
05/05/26 12:28:35 AM 31 3.0 9.0 52 82 66.8 54.8 29.978 7.14 0.0 0 0.00 0.00 0.00 0.00
05/05/26 12:29:26 AM 38 3.0 9.0 52 82 66.8 54.8 29.982 7.14 0.0 0 0.00 0.00 0.00 0.00
05/05/26 12:30:21 AM 39 2.0 9.0 52 82 66.7 54.8 29.980 7.14 0.0 0 0.00 0.00 0.00 0.00
05/05/26 12:31:34 AM 34 2.0 9.0 52 82 66.7 54.8 29.981 7.14 0.0 0 0.00 0.00 0.00 0.00
05/05/26 12:32:22 AM 35 3.0 9.0 52 82 66.8 54.8 29.982 7.14 0.0 0 0.00 0.00 0.00 0.00
05/05/26 12:33:32 AM 38 3.0 9.0 52 82 66.7 54.8 29.981 7.14 0.0 0 0.00 0.00 0.00 0.00
05/05/26 12:34:24 AM 38 0.0 9.0 52 82 66.8 54.8 29.981 7.14 0.0 0 0.00 0.00 0.00 0.00
05/05/26 12:35:19 AM 34 0.0 9.0 52 82 66.8 54.8 29.982 7.14 0.0 0 0.00 0.00 0.00 0.00
05/05/26 12:36:31 AM 38 0.0 9.0 52 82 66.8 54.8 29.983 7.14 0.0 0 0.00 0.00 0.00 0.00
05/05/26 12:37:23 AM 34 3.0 9.0 52 82 66.8 54.8 29.981 7.14 0.0 0 0.00 0.00 0.00 0.00
05/05/26 12:38:33 AM 34 2.0 9.0 52 82 66.8 54.8 29.982 7.14 0.0 0 0.00 0.00 0.00 0.00
05/05/26 12:39:24 AM 37 2.0 9.0 52 82 66.8 54.8 29.978 7.14 0.0 0 0.00 0.00 0.00 0.00
05/05/26 12:40:16 AM 38 2.0 9.0 52 82 66.8 54.8 29.981 7.14 0.0 0 0.00 0.00 0.00 0.00
05/05/26 12:41:29 AM 34 4.0 9.0 52 82 66.8 54.8 29.977 7.14 0.0 0 0.00 0.00 0.00 0.00
05/05/26 12:42:21 AM 38 4.0 9.0 52 82 66.9 54.8 29.983 7.14 0.0 0 0.00 0.00 0.00 0.00
05/05/26 12:43:30 AM 34 3.0 9.0 52 82 66.8 54.8 29.980 7.14 0.0 0 0.00 0.00 0.00 0.00
05/05/26 12:44:22 AM 35 3.0 9.0 52 82 66.8 54.8 29.980 7.14 0.0 0 0.00 0.00 0.00 0.00
05/05/26 12:45:35 AM 36 4.0 9.0 52 82 66.8 54.7 29.977 7.14 0.0 0 0.00 0.00 0.00 0.00
05/05/26 12:46:26 AM 38 2.0 9.0 52 82 66.8 54.7 29.978 7.14 0.0 0 0.00 0.00 0.00 0.00
05/05/26 12:47:18 AM 38 1.0 9.0 52 82 66.8 54.6 29.978 7.14 0.0 0 0.00 0.00 0.00 0.00
05/05/26 12:48:31 AM 35 1.0 9.0 52 82 66.8 54.6 29.977 7.14 0.0 0 0.00 0.00 0.00 0.00
05/05/26 12:49:17 AM 36 1.0 9.0 52 82 66.8 54.5 29.974 7.14 0.0 0 0.00 0.00 0.00 0.00
05/05/26 12:50:32 AM 38 0.0 9.0 52 81 66.8 54.5 29.977 7.14 0.0 0 0.00 0.00 0.00 0.00
05/05/26 12:51:24 AM 34 0.0 9.0 52 81 66.8 54.4 29.976 7.14 0.0 0 0.00 0.00 0.00 0.00
05/05/26 12:52:34 AM 36 1.0 9.0 52 81 66.8 54.4 29.976 7.14 0.0 0 0.00 0.00 0.00 0.00
05/05/26 12:53:29 AM 32 0.0 9.0 52 81 66.8 54.4 29.975 7.14 0.0 0 0.00 0.00 0.00 0.00
05/05/26 12:54:35 AM 32 1.0 9.0 52 81 66.8 54.4 29.975 7.14 0.0 0 0.00 0.00 0.00 0.00
05/05/26 12:55:27 AM 38 1.0 9.0 52 81 66.8 54.3 29.975 7.14 0.0 0 0.00 0.00 0.00 0.00
05/05/26 12:56:19 AM 36 0.0 9.0 52 81 66.8 54.3 29.977 7.14 0.0 0 0.00 0.00 0.00 0.00
05/05/26 12:57:31 AM 36 1.0 9.0 52 81 66.8 54.3 29.978 7.14 0.0 0 0.00 0.00 0.00 0.00
05/05/26 12:58:23 AM 37 1.0 9.0 52 81 66.9 54.2 29.977 7.14 0.0 0 0.00 0.00 0.00 0.00
05/05/26 12:59:18 AM 37 1.0 9.0 52 81 66.8 54.2 29.981 7.14 0.0 0 0.00 0.00 0.00 0.00
05/05/26 1:00:46 AM 35 0.0 9.0 52 81 66.8 54.2 29.977 7.14 0.0 0 0.00 0.00 0.00 0.00
05/05/26 1:01:37 AM 37 0.0 9.0 52 81 66.8 54.1 29.977 7.14 0.0 0 0.00 0.00 0.00 0.00
05/05/26 1:02:29 AM 38 1.0 9.0 52 81 66.8 54.2 29.978 7.14 0.0 0 0.00 0.00 0.00 0.00
05/05/26 1:03:21 AM 34 1.0 9.0 52 81 66.8 54.1 29.976 7.14 0.0 0 0.00 0.00 0.00 0.00
05/05/26 1:04:31 AM 37 0.0 9.0 52 82 66.8 54.1 29.975 7.14 0.0 0 0.00 0.00 0.00 0.00
05/05/26 1:05:19 AM 38 0.0 9.0 52 82 66.9 54.1 29.975 7.14 0.0 0 0.00 0.00 0.00 0.00
05/05/26 1:06:32 AM 32 0.0 9.0 52 82 66.9 54.1 29.977 7.14 0.0 0 0.00 0.00 0.00 0.00
05/05/26 1:07:24 AM 38 0.0 9.0 52 82 66.8 54.1 29.975 7.14 0.0 0 0.00 0.00 0.00 0.00
05/05/26 1:08:19 AM 35 0.0 9.0 52 82 66.8 54.1 29.977 7.14 0.0 0 0.00 0.00 0.00 0.00
05/05/26 1:09:28 AM 36 0.0 9.0 52 82 66.8 54.1 29.977 7.14 0.0 0 0.00 0.00 0.00 0.00
05/05/26 1:10:20 AM 37 0.0 9.0 52 82 66.8 54.1 29.977 7.14 0.0 0 0.00 0.00 0.00 0.00
05/05/26 1:11:30 AM 38 0.0 9.0 52 82 66.8 54.1 29.975 7.14 0.0 0 0.00 0.00 0.00 0.00
05/05/26 1:12:22 AM 34 0.0 9.0 52 82 66.8 54.1 29.974 7.14 0.0 0 0.00 0.00 0.00 0.00
05/05/26 1:13:34 AM 38 1.0 9.0 52 82 66.8 54.1 29.975 7.14 0.0 0 0.00 0.00 0.00 0.00
05/05/26 1:14:26 AM 38 2.0 9.0 52 82 66.8 54.1 29.976 7.14 0.0 0 0.00 0.00 0.00 0.00
05/05/26 1:15:18 AM 37 2.0 9.0 52 82 66.8 54.1 29.975 7.14 0.0 0 0.00 0.00 0.00 0.00
05/05/26 1:16:25 AM 38 2.0 9.0 52 82 66.8 54.1 29.972 7.14 0.0 0 0.00 0.00 0.00 0.00
05/05/26 1:17:16 AM 38 2.0 9.0 52 82 66.8 54.1 29.971 7.14 0.0 0 0.00 0.00 0.00 0.00
05/05/26 1:18:29 AM 32 1.0 9.0 52 82 66.8 54.1 29.974 7.14 0.0 0 0.00 0.00 0.00 0.00
05/05/26 1:19:21 AM 38 0.0 9.0 52 83 66.8 54.1 29.971 7.14 0.0 0 0.00 0.00 0.00 0.00
05/05/26 1:20:33 AM 34 0.0 9.0 52 83 66.8 54.1 29.973 7.14 0.0 0 0.00 0.00 0.00 0.00
05/05/26 1:21:22 AM 35 0.0 9.0 52 83 66.8 54.1 29.969 7.14 0.0 0 0.00 0.00 0.00 0.00
05/05/26 1:22:35 AM 38 0.0 9.0 52 83 66.8 54.1 29.969 7.14 0.0 0 0.00 0.00 0.00 0.00
05/05/26 1:23:27 AM 38 0.0 9.0 52 83 66.8 54.1 29.970 7.14 0.0 0 0.00 0.00 0.00 0.00
05/05/26 1:24:18 AM 35 0.0 9.0 52 83 66.8 54.1 29.970 7.14 0.0 0 0.00 0.00 0.00 0.00
05/05/26 1:25:31 AM 32 0.0 9.0 52 83 66.8 54.1 29.969 7.14 0.0 0 0.00 0.00 0.00 0.00
05/05/26 1:26:23 AM 38 0.0 9.0 52 83 66.8 54.1 29.969 7.14 0.0 0 0.00 0.00 0.00 0.00
05/05/26 1:27:33 AM 40 0.0 9.0 52 83 66.9 54.1 29.968 7.14 0.0 0 0.00 0.00 0.00 0.00
05/05/26 1:28:24 AM 38 0.0 9.0 52 83 66.8 54.1 29.968 7.14 0.0 0 0.00 0.00 0.00 0.00
05/05/26 1:29:34 AM 34 0.0 9.0 52 83 66.9 54.1 29.967 7.14 0.0 0 0.00 0.00 0.00 0.00
05/05/26 1:30:26 AM 37 0.0 9.0 52 83 66.9 54.1 29.967 7.14 0.0 0 0.00 0.00 0.00 0.00
05/05/26 1:31:18 AM 38 0.0 9.0 52 83 66.8 54.1 29.968 7.14 0.0 0 0.00 0.00 0.00 0.00
05/05/26 1:32:27 AM 37 0.0 9.0 52 83 66.9 54.1 29.966 7.14 0.0 0 0.00 0.00 0.00 0.00
05/05/26 1:33:19 AM 36 2.0 9.0 52 83 66.9 54.1 29.968 7.14 0.0 0 0.00 0.00 0.00 0.00
05/05/26 1:34:29 AM 36 3.0 9.0 52 83 66.8 54.0 29.968 7.14 0.0 0 0.00 0.00 0.00 0.00
05/05/26 1:35:21 AM 38 1.0 9.0 52 83 66.8 54.0 29.966 7.14 0.0 0 0.00 0.00 0.00 0.00
05/05/26 1:36:31 AM 32 0.0 9.0 52 83 66.9 54.0 29.969 7.14 0.0 0 0.00 0.00 0.00 0.00
05/05/26 1:37:19 AM 34 1.0 9.0 52 83 66.9 54.0 29.968 7.14 0.0 0 0.00 0.00 0.00 0.00
05/05/26 1:38:32 AM 39 3.0 9.0 52 83 66.8 54.0 29.966 7.14 0.0 0 0.00 0.00 0.00 0.00
05/05/26 1:39:24 AM 35 2.0 9.0 52 83 66.9 54.0 29.964 7.14 0.0 0 0.00 0.00 0.00 0.00
05/05/26 1:40:37 AM 36 3.0 9.0 52 83 66.9 54.0 29.966 7.14 0.0 0 0.00 0.00 0.00 0.00
05/05/26 1:41:28 AM 37 4.0 9.0 52 83 66.9 53.9 29.964 7.14 0.0 0 0.00 0.00 0.00 0.00
05/05/26 1:42:20 AM 37 3.0 9.0 52 83 66.9 53.9 29.963 7.14 0.0 0 0.00 0.00 0.00 0.00
05/05/26 1:43:27 AM 34 2.0 9.0 52 83 66.9 53.9 29.963 7.14 0.0 0 0.00 0.00 0.00 0.00
05/05/26 1:44:19 AM 39 2.0 9.0 52 83 66.9 53.9 29.962 7.14 0.0 0 0.00 0.00 0.00 0.00
05/05/26 1:45:35 AM 36 3.0 9.0 52 83 66.9 53.9 29.962 7.14 0.0 0 0.00 0.00 0.00 0.00
05/05/26 1:46:24 AM 35 3.0 9.0 52 83 66.9 53.9 29.964 7.14 0.0 0 0.00 0.00 0.00 0.00
05/05/26 1:47:36 AM 36 2.0 9.0 52 83 66.9 53.9 29.962 7.14 0.0 0 0.00 0.00 0.00 0.00
05/05/26 1:48:25 AM 36 1.0 9.0 52 83 66.9 53.9 29.962 7.14 0.0 0 0.00 0.00 0.00 0.00
05/05/26 1:49:17 AM 34 2.0 9.0 52 83 67.0 53.9 29.964 7.14 0.0 0 0.00 0.00 0.00 0.00
05/05/26 1:50:30 AM 34 2.0 9.0 52 83 66.9 53.8 29.965 7.14 0.0 0 0.00 0.00 0.00 0.00
05/05/26 1:51:21 AM 38 1.0 9.0 52 83 66.9 53.9 29.965 7.14 0.0 0 0.00 0.00 0.00 0.00
05/05/26 1:52:34 AM 36 0.0 9.0 52 83 66.9 53.9 29.962 7.14 0.0 0 0.00 0.00 0.00 0.00
05/05/26 1:53:23 AM 38 0.0 9.0 52 83 66.9 53.8 29.964 7.14 0.0 0 0.00 0.00 0.00 0.00
05/05/26 1:54:33 AM 38 0.0 9.0 52 83 66.9 53.8 29.963 7.14 0.0 0 0.00 0.00 0.00 0.00
05/05/26 1:55:25 AM 35 0.0 9.0 52 83 66.9 53.8 29.962 7.14 0.0 0 0.00 0.00 0.00 0.00
05/05/26 1:56:37 AM 32 0.0 9.0 52 83 67.0 53.8 29.959 7.14 0.0 0 0.00 0.00 0.00 0.00
05/05/26 1:57:29 AM 38 0.0 9.0 52 83 66.9 53.8 29.961 7.14 0.0 0 0.00 0.00 0.00 0.00
05/05/26 1:58:21 AM 36 0.0 9.0 52 83 67.0 53.8 29.961 7.14 0.0 0 0.00 0.00 0.00 0.00
05/05/26 1:59:27 AM 31 1.0 9.0 52 83 67.0 53.8 29.964 7.14 0.0 0 0.00 0.00 0.00 0.00
05/05/26 2:00:22 AM 38 1.0 9.0 52 83 66.9 53.8 29.962 7.14 0.0 0 0.00 0.00 0.00 0.00
05/05/26 2:01:32 AM 32 1.0 9.0 52 83 67.0 53.8 29.963 7.14 0.0 0 0.00 0.00 0.00 0.00
05/05/26 2:02:27 AM 38 0.0 9.0 52 83 66.9 53.8 29.962 7.14 0.0 0 0.00 0.00 0.00 0.00
05/05/26 2:03:16 AM 38 0.0 9.0 52 83 67.0 53.8 29.959 7.14 0.0 0 0.00 0.00 0.00 0.00
05/05/26 2:04:25 AM 36 0.0 9.0 52 83 66.9 53.9 29.959 7.14 0.0 0 0.00 0.00 0.00 0.00
05/05/26 2:05:17 AM 38 0.0 9.0 52 83 66.9 53.8 29.956 7.14 0.0 0 0.00 0.00 0.00 0.00
05/05/26 2:06:30 AM 34 0.0 9.0 52 83 66.9 53.9 29.957 7.14 0.0 0 0.00 0.00 0.00 0.00
05/05/26 2:07:22 AM 36 0.0 9.0 52 83 66.9 53.9 29.956 7.14 0.0 0 0.00 0.00 0.00 0.00
05/05/26 2:08:47 AM 38 0.0 9.0 52 83 66.9 53.8 29.956 7.14 0.0 0 0.00 0.00 0.00 0.00
05/05/26 2:09:17 AM 32 0.0 9.0 52 83 67.0 53.9 29.955 7.14 0.0 0 0.00 0.00 0.00 0.00
05/05/26 2:10:24 AM 39 0.0 9.0 52 83 67.0 53.9 29.956 7.14 0.0 0 0.00 0.00 0.00 0.00
05/05/26 2:11:19 AM 36 0.0 9.0 52 83 67.0 53.9 29.957 7.14 0.0 0 0.00 0.00 0.00 0.00
05/05/26 2:12:29 AM 38 0.0 9.0 52 83 67.0 53.9 29.956 7.14 0.0 0 0.00 0.00 0.00 0.00
05/05/26 2:13:20 AM 37 0.0 9.0 52 83 67.0 53.9 29.955 7.14 0.0 0 0.00 0.00 0.00 0.00
05/05/26 2:14:33 AM 37 0.0 9.0 52 83 67.0 53.9 29.953 7.14 0.0 0 0.00 0.00 0.00 0.00
05/05/26 2:15:43 AM 35 0.0 9.0 52 83 66.9 53.9 29.953 7.14 0.0 0 0.00 0.00 0.00 0.00
05/05/26 2:16:35 AM 32 0.0 9.0 52 83 67.0 53.9 29.953 7.14 0.0 0 0.00 0.00 0.00 0.00
05/05/26 2:17:26 AM 35 0.0 9.0 52 83 66.9 53.9 29.953 7.14 0.0 0 0.00 0.00 0.00 0.00
05/05/26 2:18:18 AM 38 0.0 9.0 52 83 66.9 53.8 29.952 7.14 0.0 0 0.00 0.00 0.00 0.00
05/05/26 2:19:31 AM 37 0.0 9.0 52 83 66.9 53.8 29.954 7.14 0.0 0 0.00 0.00 0.00 0.00
05/05/26 2:20:23 AM 38 0.0 9.0 52 83 66.9 53.8 29.952 7.14 0.0 0 0.00 0.00 0.00 0.00
05/05/26 2:21:32 AM 39 0.0 9.0 52 83 66.9 53.8 29.949 7.14 0.0 0 0.00 0.00 0.00 0.00
05/05/26 2:22:24 AM 35 0.0 9.0 52 83 67.0 53.8 29.953 7.14 0.0 0 0.00 0.00 0.00 0.00
05/05/26 2:23:34 AM 39 2.0 9.0 52 83 67.0 53.8 29.950 7.14 0.0 0 0.00 0.00 0.00 0.00
05/05/26 2:24:26 AM 38 2.0 9.0 52 83 67.0 53.8 29.952 7.14 0.0 0 0.00 0.00 0.00 0.00
05/05/26 2:25:17 AM 38 3.0 9.0 52 83 67.0 53.8 29.951 7.14 0.0 0 0.00 0.00 0.00 0.00
05/05/26 2:26:24 AM 35 1.0 9.0 52 83 67.0 53.8 29.949 7.14 0.0 0 0.00 0.00 0.00 0.00
05/05/26 2:27:16 AM 39 1.0 9.0 52 83 67.0 53.8 29.950 7.14 0.0 0 0.00 0.00 0.00 0.00
05/05/26 2:28:29 AM 32 1.0 9.0 52 83 66.9 53.8 29.948 7.14 0.0 0 0.00 0.00 0.00 0.00
05/05/26 2:29:21 AM 38 2.0 9.0 52 83 66.9 53.8 29.950 7.14 0.0 0 0.00 0.00 0.00 0.00
05/05/26 2:30:33 AM 36 2.0 9.0 52 83 66.9 53.8 29.948 7.14 0.0 0 0.00 0.00 0.00 0.00
05/05/26 2:31:22 AM 38 1.0 9.0 52 83 67.0 53.8 29.948 7.14 0.0 0 0.00 0.00 0.00 0.00
05/05/26 2:32:32 AM 38 0.0 9.0 52 83 66.9 53.8 29.947 7.14 0.0 0 0.00 0.00 0.00 0.00
05/05/26 2:33:24 AM 35 1.0 9.0 52 83 66.9 53.8 29.947 7.14 0.0 0 0.00 0.00 0.00 0.00
05/05/26 2:34:19 AM 38 2.0 9.0 52 83 66.9 53.8 29.947 7.14 0.0 0 0.00 0.00 0.00 0.00
05/05/26 2:35:29 AM 38 1.0 9.0 52 83 66.9 53.8 29.951 7.14 0.0 0 0.00 0.00 0.00 0.00
05/05/26 2:36:23 AM 38 2.0 9.0 52 83 67.0 53.8 29.949 7.14 0.0 0 0.00 0.00 0.00 0.00
05/05/26 2:37:30 AM 32 2.0 9.0 52 83 66.9 53.8 29.949 7.14 0.0 0 0.00 0.00 0.00 0.00
05/05/26 2:38:19 AM 35 2.0 9.0 52 83 67.0 53.8 29.946 7.14 0.0 0 0.00 0.00 0.00 0.00
05/05/26 2:39:32 AM 36 3.0 9.0 52 83 67.0 53.8 29.947 7.14 0.0 0 0.00 0.00 0.00 0.00
05/05/26 2:40:23 AM 31 1.0 9.0 52 83 66.9 53.8 29.948 7.14 0.0 0 0.00 0.00 0.00 0.00
05/05/26 2:41:36 AM 38 1.0 9.0 52 83 67.0 53.8 29.948 7.14 0.0 0 0.00 0.00 0.00 0.00
05/05/26 2:42:22 AM 32 0.0 9.0 52 83 67.0 53.8 29.944 7.14 0.0 0 0.00 0.00 0.00 0.00
05/05/26 2:43:38 AM 36 0.0 9.0 52 83 66.9 53.8 29.947 7.14 0.0 0 0.00 0.00 0.00 0.00
05/05/26 2:44:30 AM 34 0.0 9.0 52 83 67.0 53.8 29.945 7.14 0.0 0 0.00 0.00 0.00 0.00
05/05/26 2:45:45 AM 34 0.0 9.0 52 83 66.9 53.8 29.946 7.14 0.0 0 0.00 0.00 0.00 0.00
05/05/26 2:46:34 AM 37 0.0 9.0 52 83 67.0 53.8 29.943 7.14 0.0 0 0.00 0.00 0.00 0.00
05/05/26 2:47:29 AM 34 0.0 9.0 52 83 66.9 53.8 29.940 7.14 0.0 0 0.00 0.00 0.00 0.00
05/05/26 2:48:36 AM 32 0.0 9.0 52 83 66.9 53.7 29.940 7.14 0.0 0 0.00 0.00 0.00 0.00
05/05/26 2:49:28 AM 36 0.0 9.0 52 83 67.0 53.7 29.943 7.14 0.0 0 0.00 0.00 0.00 0.00
05/05/26 2:50:19 AM 34 0.0 9.0 52 84 67.0 53.8 29.942 7.14 0.0 0 0.00 0.00 0.00 0.00
05/05/26 2:51:29 AM 35 0.0 9.0 52 84 66.9 53.7 29.940 7.14 0.0 0 0.00 0.00 0.00 0.00
05/05/26 2:52:21 AM 36 0.0 9.0 52 84 66.9 53.7 29.943 7.14 0.0 0 0.00 0.00 0.00 0.00
05/05/26 2:53:31 AM 35 0.0 9.0 52 84 66.9 53.7 29.944 7.14 0.0 0 0.00 0.00 0.00 0.00
05/05/26 2:54:23 AM 35 0.0 9.0 52 84 66.9 53.7 29.942 7.14 0.0 0 0.00 0.00 0.00 0.00
05/05/26 2:55:32 AM 38 0.0 9.0 52 84 66.9 53.7 29.942 7.14 0.0 0 0.00 0.00 0.00 0.00
05/05/26 2:56:24 AM 37 0.0 9.0 52 84 66.8 53.7 29.942 7.14 0.0 0 0.00 0.00 0.00 0.00
05/05/26 2:57:16 AM 35 0.0 9.0 52 84 66.8 53.6 29.943 7.14 0.0 0 0.00 0.00 0.00 0.00
05/05/26 2:58:26 AM 35 0.0 9.0 52 84 67.0 53.6 29.942 7.15 0.0 0 0.01 0.00 0.00 0.00
05/05/26 2:59:18 AM 36 0.0 9.0 52 84 66.9 53.6 29.939 7.15 0.0 0 0.01 0.00 0.00 0.00
05/05/26 3:00:55 AM 34 3.0 9.0 52 84 66.9 53.6 29.940 7.15 0.0 0 0.01 0.00 0.00 0.00
05/05/26 3:01:25 AM 34 3.0 9.0 52 84 66.9 53.6 29.940 7.15 0.0 0 0.01 0.00 0.01 0.00
05/05/26 3:02:17 AM 35 3.0 9.0 52 84 66.9 53.6 29.939 7.15 0.0 0 0.01 0.00 0.01 0.00
05/05/26 3:03:27 AM 35 2.0 9.0 52 84 66.9 53.6 29.943 7.15 0.0 0 0.01 0.00 0.01 0.00
05/05/26 3:04:16 AM 35 2.0 9.0 52 84 66.8 53.5 29.943 7.15 0.0 0 0.01 0.00 0.01 0.00
05/05/26 3:05:29 AM 36 2.0 9.0 52 84 66.9 53.5 29.939 7.15 0.0 0 0.01 0.00 0.01 0.00
05/05/26 3:06:20 AM 35 3.0 9.0 52 84 66.8 53.5 29.939 7.15 0.0 0 0.01 0.00 0.01 0.00
05/05/26 3:07:33 AM 35 3.0 9.0 52 84 66.9 53.5 29.939 7.15 0.0 0 0.01 0.00 0.01 0.00
05/05/26 3:08:25 AM 35 2.0 9.0 52 85 66.9 53.5 29.940 7.15 0.0 0 0.01 0.00 0.01 0.00
05/05/26 3:09:17 AM 36 2.0 9.0 52 85 66.9 53.4 29.940 7.15 0.0 0 0.01 0.00 0.01 0.00
05/05/26 3:10:27 AM 35 2.0 9.0 52 85 66.8 53.4 29.942 7.15 0.0 0 0.01 0.00 0.01 0.00
05/05/26 3:11:18 AM 35 2.0 9.0 52 85 66.8 53.4 29.942 7.15 0.0 0 0.01 0.00 0.01 0.00
05/05/26 3:12:28 AM 35 1.0 9.0 52 85 66.8 53.3 29.942 7.15 0.0 0 0.01 0.00 0.01 0.00
05/05/26 3:13:23 AM 36 2.0 9.0 52 85 66.8 53.3 29.938 7.15 0.0 0 0.01 0.00 0.01 0.00
05/05/26 3:14:36 AM 36 1.0 9.0 52 85 66.9 53.3 29.939 7.15 0.0 0 0.01 0.00 0.01 0.00
05/05/26 3:15:25 AM 35 1.0 9.0 52 85 66.8 53.3 29.937 7.15 0.0 0 0.01 0.00 0.01 0.00
05/05/26 3:16:34 AM 35 0.0 9.0 52 85 66.8 53.3 29.938 7.15 0.0 0 0.01 0.00 0.01 0.00
05/05/26 3:17:29 AM 38 0.0 9.0 52 85 66.8 53.2 29.938 7.15 0.0 0 0.01 0.00 0.01 0.00
05/05/26 3:18:21 AM 35 2.0 9.0 52 85 66.8 53.2 29.936 7.15 0.0 0 0.01 0.00 0.01 0.00
05/05/26 3:19:31 AM 35 1.0 9.0 52 85 66.8 53.2 29.936 7.15 0.0 0 0.01 0.00 0.01 0.00
05/05/26 3:20:20 AM 36 0.0 9.0 52 85 66.8 53.2 29.935 7.15 0.0 0 0.01 0.00 0.01 0.00
05/05/26 3:21:33 AM 35 0.0 9.0 52 85 66.8 53.2 29.936 7.15 0.0 0 0.01 0.00 0.01 0.00
05/05/26 3:22:24 AM 35 0.0 9.0 52 85 66.8 53.2 29.934 7.15 0.0 0 0.01 0.00 0.01 0.00
05/05/26 3:23:37 AM 36 2.0 9.0 52 85 66.8 53.2 29.935 7.15 0.0 0 0.01 0.00 0.01 0.00
05/05/26 3:24:29 AM 34 1.0 9.0 52 85 66.8 53.2 29.934 7.15 0.0 0 0.01 0.00 0.01 0.00
05/05/26 3:25:18 AM 36 3.0 9.0 52 85 66.9 53.2 29.935 7.15 0.0 0 0.01 0.00 0.01 0.00
05/05/26 3:26:28 AM 35 4.0 9.0 52 85 66.9 53.1 29.936 7.15 0.0 0 0.01 0.00 0.01 0.00
05/05/26 3:27:20 AM 35 3.0 9.0 52 85 66.8 53.1 29.934 7.15 0.0 0 0.01 0.00 0.01 0.00
05/05/26 3:28:32 AM 34 3.0 9.0 52 85 66.9 53.1 29.932 7.15 0.0 0 0.01 0.00 0.01 0.00
05/05/26 3:29:21 AM 35 2.0 9.0 52 85 66.9 53.1 29.934 7.15 0.0 0 0.01 0.00 0.01 0.00
05/05/26 3:30:58 AM 36 0.0 9.0 52 85 66.8 53.0 29.935 7.15 0.0 0 0.01 0.00 0.01 0.00
05/05/26 3:31:26 AM 36 2.0 9.0 52 86 66.9 53.1 29.933 7.15 0.0 0 0.01 0.00 0.01 0.00
05/05/26 3:32:18 AM 36 2.0 9.0 52 86 66.9 53.0 29.934 7.15 0.0 0 0.01 0.00 0.01 0.00
05/05/26 3:33:31 AM 32 2.0 9.0 52 86 66.9 53.0 29.932 7.15 0.0 0 0.01 0.00 0.01 0.00
05/05/26 3:34:23 AM 36 2.0 9.0 52 86 66.9 53.0 29.934 7.15 0.0 0 0.01 0.00 0.01 0.00
05/05/26 3:35:32 AM 36 3.0 9.0 52 86 66.9 53.0 29.935 7.15 0.0 0 0.01 0.00 0.01 0.00
05/05/26 3:36:27 AM 34 0.0 9.0 52 86 66.9 53.0 29.933 7.15 0.0 0 0.01 0.00 0.01 0.00
05/05/26 3:37:34 AM 36 1.0 9.0 52 86 66.9 53.0 29.935 7.15 0.0 0 0.01 0.00 0.01 0.00
05/05/26 3:38:26 AM 35 1.0 9.0 52 86 66.9 52.9 29.935 7.15 0.0 0 0.01 0.00 0.01 0.00
05/05/26 3:39:18 AM 34 1.0 9.0 52 86 66.9 52.9 29.934 7.15 0.0 0 0.01 0.00 0.01 0.00
05/05/26 3:40:31 AM 34 0.0 9.0 52 86 66.8 52.9 29.934 7.15 0.0 0 0.01 0.00 0.01 0.00
05/05/26 3:41:22 AM 35 0.0 9.0 52 86 66.9 52.9 29.936 7.15 0.0 0 0.01 0.00 0.01 0.00
05/05/26 3:42:29 AM 35 0.0 9.0 52 86 66.9 52.9 29.931 7.15 0.0 0 0.01 0.00 0.01 0.00
05/05/26 3:43:21 AM 36 0.0 9.0 52 86 66.8 52.9 29.934 7.15 0.0 0 0.01 0.00 0.01 0.00
05/05/26 3:44:34 AM 32 0.0 9.0 52 86 67.0 52.9 29.934 7.15 0.0 0 0.01 0.00 0.01 0.00
05/05/26 3:45:29 AM 35 0.0 9.0 52 86 66.9 52.9 29.934 7.15 0.0 0 0.01 0.00 0.01 0.00
05/05/26 3:46:20 AM 35 0.0 9.0 52 86 66.9 52.9 29.934 7.15 0.0 0 0.01 0.00 0.01 0.00
05/05/26 3:47:27 AM 36 0.0 9.0 52 86 66.9 52.9 29.934 7.15 0.0 0 0.01 0.00 0.01 0.00
05/05/26 3:48:19 AM 34 1.0 9.0 52 86 66.9 52.9 29.934 7.15 0.0 0 0.01 0.00 0.01 0.00
05/05/26 3:49:32 AM 36 4.0 9.0 52 86 66.9 52.9 29.935 7.15 0.0 0 0.01 0.00 0.01 0.00
05/05/26 3:50:24 AM 35 3.0 9.0 52 86 66.9 52.9 29.934 7.15 0.0 0 0.01 0.00 0.01 0.00
05/05/26 3:51:18 AM 35 4.0 9.0 52 86 66.9 52.9 29.934 7.15 0.0 0 0.01 0.00 0.01 0.00
05/05/26 3:52:28 AM 34 5.0 9.0 52 86 66.9 52.9 29.935 7.15 0.0 0 0.01 0.00 0.01 0.00
05/05/26 3:53:17 AM 35 2.0 9.0 52 86 66.9 52.8 29.934 7.15 0.0 0 0.01 0.00 0.01 0.00
05/05/26 3:54:30 AM 35 0.0 9.0 52 86 66.9 52.9 29.934 7.15 0.0 0 0.01 0.00 0.01 0.00
05/05/26 3:55:22 AM 35 3.0 9.0 52 86 66.9 52.8 29.934 7.15 0.0 0 0.01 0.00 0.01 0.00
05/05/26 3:56:35 AM 31 3.0 9.0 52 86 66.9 52.8 29.935 7.15 0.0 0 0.01 0.00 0.01 0.00
05/05/26 3:57:26 AM 32 2.0 9.0 52 86 66.9 52.8 29.935 7.15 0.0 0 0.01 0.00 0.01 0.00
05/05/26 3:58:33 AM 35 3.0 9.0 52 86 66.9 52.8 29.935 7.15 0.0 0 0.01 0.00 0.01 0.00
05/05/26 3:59:25 AM 35 3.0 9.0 52 86 66.9 52.8 29.934 7.15 0.0 0 0.01 0.00 0.01 0.00
05/05/26 4:00:20 AM 32 2.0 9.0 52 86 66.9 52.8 29.936 7.15 0.0 0 0.01 0.00 0.01 0.00
05/05/26 4:01:30 AM 36 1.0 9.0 52 86 66.9 52.7 29.936 7.15 0.0 0 0.01 0.00 0.01 0.00
05/05/26 4:02:22 AM 35 0.0 9.0 52 87 66.9 52.8 29.934 7.15 0.0 0 0.01 0.00 0.01 0.00
05/05/26 4:03:31 AM 36 0.0 9.0 52 87 66.9 52.7 29.936 7.15 0.0 0 0.01 0.00 0.01 0.00
05/05/26 4:04:23 AM 34 0.0 9.0 52 87 67.0 52.7 29.936 7.15 0.0 0 0.01 0.00 0.01 0.00
05/05/26 4:05:36 AM 32 0.0 9.0 52 87 66.9 52.7 29.933 7.15 0.0 0 0.01 0.00 0.01 0.00
05/05/26 4:06:28 AM 34 2.0 9.0 52 87 66.9 52.7 29.937 7.15 0.0 0 0.01 0.00 0.01 0.00
05/05/26 4:07:20 AM 34 0.0 9.0 52 87 66.9 52.7 29.938 7.15 0.0 0 0.01 0.00 0.01 0.00
05/05/26 4:08:45 AM 36 0.0 9.0 52 87 66.9 52.7 29.935 7.15 0.0 0 0.01 0.00 0.01 0.00
05/05/26 4:09:31 AM 34 0.0 9.0 52 87 66.9 52.7 29.935 7.15 0.0 0 0.01 0.00 0.01 0.00
05/05/26 4:10:23 AM 35 0.0 9.0 52 87 67.0 52.7 29.934 7.15 0.0 0 0.01 0.00 0.01 0.00
05/05/26 4:11:35 AM 32 0.0 9.0 52 87 67.0 52.7 29.936 7.15 0.0 0 0.01 0.00 0.01 0.00
05/05/26 4:12:27 AM 36 0.0 9.0 52 87 66.9 52.7 29.937 7.15 0.0 0 0.01 0.00 0.01 0.00
05/05/26 4:13:19 AM 36 0.0 9.0 52 87 66.9 52.7 29.936 7.15 0.0 0 0.01 0.00 0.01 0.00
05/05/26 4:14:26 AM 36 0.0 9.0 52 87 66.9 52.7 29.937 7.15 0.0 0 0.01 0.00 0.01 0.00
05/05/26 4:15:21 AM 31 0.0 9.0 52 87 66.8 52.7 29.934 7.15 0.0 0 0.01 0.00 0.01 0.00
05/05/26 4:16:31 AM 35 0.0 9.0 52 87 67.0 52.7 29.934 7.15 0.0 0 0.01 0.00 0.01 0.00
05/05/26 4:17:22 AM 35 0.0 9.0 52 87 66.9 52.7 29.933 7.15 0.0 0 0.01 0.00 0.01 0.00
05/05/26 4:18:35 AM 36 0.0 9.0 52 87 66.9 52.6 29.936 7.15 0.0 0 0.01 0.00 0.01 0.00
05/05/26 4:19:27 AM 34 0.0 9.0 52 87 66.9 52.6 29.936 7.15 0.0 0 0.01 0.00 0.01 0.00
05/05/26 4:20:34 AM 36 0.0 9.0 52 87 66.9 52.6 29.936 7.15 0.0 0 0.01 0.00 0.01 0.00
05/05/26 4:21:26 AM 32 0.0 9.0 52 87 66.9 52.6 29.936 7.15 0.0 0 0.01 0.00 0.01 0.00
05/05/26 4:22:18 AM 32 0.0 9.0 52 87 67.0 52.6 29.935 7.15 0.0 0 0.01 0.00 0.01 0.00
05/05/26 4:23:28 AM 34 0.0 9.0 52 87 66.9 52.6 29.936 7.15 0.0 0 0.01 0.00 0.01 0.00
05/05/26 4:24:19 AM 35 0.0 9.0 52 87 66.9 52.6 29.934 7.15 0.0 0 0.01 0.00 0.01 0.00
05/05/26 4:25:29 AM 30 0.0 9.0 52 87 66.9 52.6 29.936 7.15 0.0 0 0.01 0.00 0.01 0.00
05/05/26 4:26:21 AM 36 0.0 9.0 52 87 66.9 52.6 29.934 7.15 0.0 0 0.01 0.00 0.01 0.00
05/05/26 4:27:34 AM 35 0.0 9.0 52 87 67.0 52.6 29.936 7.15 0.0 0 0.01 0.00 0.01 0.00
05/05/26 4:28:26 AM 35 2.0 9.0 52 87 66.9 52.6 29.936 7.15 0.0 0 0.01 0.00 0.01 0.00
05/05/26 4:29:18 AM 34 2.0 9.0 52 87 66.9 52.6 29.935 7.15 0.0 0 0.01 0.00 0.01 0.00
05/05/26 4:30:48 AM 38 2.0 9.0 52 87 67.0 52.6 29.936 7.15 0.0 0 0.01 0.00 0.01 0.00
05/05/26 4:31:19 AM 34 1.0 9.0 52 87 67.0 52.6 29.934 7.15 0.0 0 0.01 0.00 0.01 0.00
05/05/26 4:32:29 AM 34 1.0 9.0 52 87 67.0 52.6 29.937 7.15 0.0 0 0.01 0.00 0.01 0.00
05/05/26 4:33:21 AM 35 1.0 9.0 52 87 67.0 52.6 29.934 7.15 0.0 0 0.01 0.00 0.01 0.00
05/05/26 4:34:34 AM 36 2.0 9.0 52 87 66.9 52.5 29.935 7.15 0.0 0 0.01 0.00 0.01 0.00
05/05/26 4:35:26 AM 36 2.0 9.0 52 87 67.0 52.5 29.936 7.15 0.0 0 0.01 0.00 0.01 0.00
05/05/26 4:36:32 AM 36 1.0 9.0 52 87 66.9 52.5 29.935 7.15 0.0 0 0.01 0.00 0.01 0.00
05/05/26 4:37:24 AM 38 1.0 9.0 53 87 66.9 52.5 29.936 7.15 0.0 0 0.01 0.00 0.01 0.00
05/05/26 4:38:37 AM 35 0.0 9.0 53 87 67.0 52.5 29.933 7.15 0.0 0 0.01 0.00 0.01 0.00
05/05/26 4:39:29 AM 38 1.0 9.0 53 87 66.9 52.5 29.936 7.15 0.0 0 0.01 0.00 0.01 0.00
05/05/26 4:40:21 AM 36 1.0 9.0 53 87 67.0 52.5 29.935 7.15 0.0 0 0.01 0.00 0.01 0.00
05/05/26 4:41:28 AM 36 1.0 9.0 53 87 67.0 52.5 29.935 7.15 0.0 0 0.01 0.00 0.01 0.00
05/05/26 4:42:20 AM 38 2.0 9.0 53 87 67.0 52.5 29.934 7.15 0.0 0 0.01 0.00 0.01 0.00
05/05/26 4:43:33 AM 38 0.0 9.0 53 87 66.9 52.5 29.936 7.15 0.0 0 0.01 0.00 0.01 0.00
05/05/26 4:44:25 AM 35 0.0 9.0 53 87 67.0 52.5 29.934 7.15 0.0 0 0.01 0.00 0.01 0.00
05/05/26 4:45:37 AM 35 0.0 9.0 53 87 67.0 52.5 29.934 7.15 0.0 0 0.01 0.00 0.01 0.00
05/05/26 4:46:29 AM 32 0.0 9.0 53 87 67.0 52.5 29.936 7.15 0.0 0 0.01 0.00 0.01 0.00
05/05/26 4:47:15 AM 36 1.0 9.0 53 87 67.0 52.5 29.936 7.15 0.0 0 0.01 0.00 0.01 0.00
05/05/26 4:48:28 AM 35 2.0 9.0 53 87 66.9 52.5 29.934 7.15 0.0 0 0.01 0.00 0.01 0.00
05/05/26 4:49:20 AM 32 3.0 9.0 53 88 67.0 52.5 29.934 7.15 0.0 0 0.01 0.00 0.01 0.00
05/05/26 4:50:33 AM 34 3.0 9.0 53 88 67.0 52.5 29.934 7.15 0.0 0 0.01 0.00 0.01 0.00
05/05/26 4:51:24 AM 34 3.0 9.0 53 88 67.0 52.5 29.933 7.15 0.0 0 0.01 0.00 0.01 0.00
05/05/26 4:52:31 AM 35 2.0 9.0 53 88 67.0 52.5 29.933 7.15 0.0 0 0.01 0.00 0.01 0.00
05/05/26 4:53:23 AM 32 1.0 9.0 53 88 66.9 52.5 29.935 7.15 0.0 0 0.01 0.00 0.01 0.00
05/05/26 4:54:33 AM 35 0.0 9.0 53 88 67.0 52.5 29.932 7.15 0.0 0 0.01 0.00 0.01 0.00
05/05/26 4:55:25 AM 35 0.0 9.0 53 88 67.0 52.5 29.932 7.15 0.0 0 0.01 0.00 0.01 0.00
05/05/26 4:56:17 AM 32 2.0 9.0 53 88 66.9 52.5 29.935 7.15 0.0 0 0.01 0.00 0.01 0.00
05/05/26 4:57:27 AM 35 2.0 9.0 53 88 67.0 52.5 29.932 7.15 0.0 0 0.01 0.00 0.01 0.00
05/05/26 4:58:18 AM 35 2.0 9.0 53 88 67.0 52.5 29.934 7.16 0.0 0 0.02 0.00 0.01 0.00
05/05/26 4:59:31 AM 35 2.0 9.0 53 88 67.0 52.5 29.934 7.16 0.0 0 0.02 0.00 0.01 0.00
05/05/26 5:00:23 AM 36 3.0 9.0 53 88 67.0 52.5 29.932 7.16 0.0 0 0.02 0.00 0.01 0.00
05/05/26 5:01:36 AM 36 1.0 9.0 53 88 67.0 52.5 29.932 7.16 0.0 0 0.02 0.00 0.01 0.00
05/05/26 5:02:28 AM 34 2.0 9.0 53 88 67.0 52.5 29.933 7.16 0.0 0 0.02 0.00 0.01 0.00
05/05/26 5:03:35 AM 36 2.0 9.0 53 88 67.0 52.5 29.932 7.16 0.0 0 0.02 0.00 0.01 0.00
05/05/26 5:04:27 AM 36 2.0 9.0 53 88 67.0 52.5 29.932 7.16 0.0 0 0.02 0.00 0.01 0.00
05/05/26 5:05:19 AM 35 1.0 9.0 53 88 67.0 52.5 29.931 7.16 0.0 0 0.02 0.00 0.01 0.00
05/05/26 5:06:32 AM 36 3.0 9.0 53 88 66.9 52.5 29.932 7.16 0.0 0 0.02 0.00 0.01 0.00
05/05/26 5:07:24 AM 35 3.0 9.0 53 88 66.8 52.5 29.931 7.16 0.0 0 0.02 0.00 0.01 0.00
05/05/26 5:08:34 AM 39 2.0 9.0 53 88 66.8 52.5 29.930 7.16 0.0 0 0.02 0.00 0.01 0.00
05/05/26 5:09:25 AM 39 3.0 9.0 53 88 66.8 52.5 29.930 7.17 0.0 0 0.03 0.06 0.06 0.06
05/05/26 5:10:17 AM 38 2.0 9.0 54 88 66.8 52.5 29.931 7.17 0.0 0 0.03 0.06 0.06 0.06
05/05/26 5:11:27 AM 37 1.0 9.0 54 88 66.6 52.5 29.931 7.17 0.0 0 0.03 0.06 0.06 0.06
05/05/26 5:12:19 AM 38 2.0 9.0 54 88 66.5 52.4 29.932 7.17 0.0 0 0.03 0.17 0.17 0.17
05/05/26 5:13:26 AM 40 4.0 9.0 54 88 66.5 52.4 29.931 7.18 0.0 0 0.04 0.17 0.17 0.17
05/05/26 5:14:21 AM 38 2.0 9.0 55 88 66.4 52.4 29.930 7.18 0.0 0 0.04 0.17 0.17 0.17
05/05/26 5:15:34 AM 38 3.0 9.0 55 88 66.3 52.4 29.931 7.18 0.0 0 0.04 0.17 0.17 0.17
05/05/26 5:16:26 AM 38 3.0 9.0 55 88 66.2 52.4 29.929 7.19 0.0 0 0.05 0.18 0.18 0.18
05/05/26 5:17:17 AM 38 4.0 9.0 55 88 66.1 52.4 29.931 7.19 0.0 0 0.05 0.18 0.18 0.18
05/05/26 5:18:30 AM 39 4.0 9.0 55 88 66.0 52.4 29.930 7.19 0.0 0 0.05 0.21 0.21 0.21
05/05/26 5:19:16 AM 40 5.0 9.0 55 88 65.9 52.3 29.931 7.20 0.0 0 0.06 0.21 0.21 0.21
05/05/26 5:20:29 AM 40 3.0 9.0 56 88 65.8 52.3 29.931 7.20 0.0 0 0.06 0.21 0.30 0.30
05/05/26 5:21:21 AM 40 3.0 9.0 56 88 65.7 52.3 29.933 7.21 0.0 0 0.07 0.30 0.30 0.30
05/05/26 5:22:34 AM 40 2.0 9.0 56 88 65.7 52.3 29.930 7.21 0.0 0 0.07 0.29 0.30 0.30
05/05/26 5:23:26 AM 40 4.0 9.0 56 88 65.6 52.3 29.932 7.21 0.0 0 0.07 0.20 0.30 0.30
05/05/26 5:24:36 AM 38 2.0 9.0 56 88 65.5 52.2 29.929 7.22 0.0 0 0.08 0.20 0.30 0.30
05/05/26 5:25:27 AM 40 1.0 9.0 56 88 65.5 52.2 29.930 7.22 0.0 0 0.08 0.20 0.30 0.30
05/05/26 5:26:19 AM 39 4.0 9.0 57 88 65.4 52.2 29.929 7.22 0.0 0 0.08 0.20 0.30 0.30
05/05/26 5:27:29 AM 39 2.0 9.0 57 88 65.3 52.1 29.930 7.22 0.0 0 0.08 0.15 0.30 0.30
05/05/26 5:28:24 AM 38 1.0 9.0 57 88 65.2 52.1 29.929 7.23 0.0 0 0.09 0.14 0.30 0.30
05/05/26 5:29:31 AM 38 1.0 9.0 57 88 65.2 52.1 29.930 7.23 0.0 0 0.09 0.14 0.30 0.30
05/05/26 5:30:26 AM 36 1.0 9.0 57 88 65.0 52.1 29.926 7.24 0.0 0 0.10 0.27 0.30 0.30
05/05/26 5:31:36 AM 39 0.0 9.0 57 88 65.0 52.1 29.930 7.24 0.0 0 0.10 0.27 0.30 0.30
05/05/26 5:32:28 AM 39 0.0 9.0 57 88 64.9 52.1 29.926 7.24 0.0 0 0.10 0.24 0.30 0.30
05/05/26 5:33:19 AM 40 0.0 9.0 57 88 64.9 52.1 29.928 7.24 0.0 0 0.10 0.20 0.30 0.30
05/05/26 5:34:32 AM 40 1.0 9.0 57 88 64.7 52.1 29.928 7.24 0.0 0 0.10 0.13 0.30 0.30
05/05/26 5:35:21 AM 39 1.0 9.0 58 88 64.7 52.1 29.925 7.24 0.0 0 0.10 0.11 0.30 0.30
05/05/26 5:36:31 AM 39 0.0 9.0 58 89 64.6 52.1 29.927 7.24 0.0 0 0.10 0.09 0.30 0.30
05/05/26 5:37:23 AM 39 2.0 9.0 58 89 64.6 52.1 29.927 7.25 0.0 0 0.11 0.09 0.30 0.30
05/05/26 5:38:18 AM 39 2.0 9.0 58 89 64.5 52.1 29.929 7.25 0.0 0 0.11 0.09 0.30 0.30
05/05/26 5:39:31 AM 40 2.0 9.0 58 89 64.4 52.1 29.929 7.25 0.0 0 0.11 0.09 0.30 0.30
05/05/26 5:40:16 AM 40 3.0 9.0 58 89 64.4 52.1 29.931 7.25 0.0 0 0.11 0.09 0.30 0.30
05/05/26 5:41:29 AM 39 1.0 9.0 58 89 64.3 52.1 29.931 7.25 0.0 0 0.11 0.09 0.30 0.30
05/05/26 5:42:24 AM 38 0.0 9.0 58 89 64.3 52.0 29.934 7.25 0.0 0 0.11 0.09 0.30 0.30
05/05/26 5:43:37 AM 40 0.0 9.0 59 89 64.2 52.0 29.934 7.25 0.0 0 0.11 0.09 0.30 0.30
05/05/26 5:44:29 AM 39 0.0 9.0 59 89 64.2 52.1 29.935 7.25 0.0 0 0.11 0.08 0.30 0.30
05/05/26 5:45:21 AM 40 0.0 9.0 59 89 64.2 52.0 29.937 7.25 0.0 0 0.11 0.07 0.30 0.30
05/05/26 5:46:31 AM 39 0.0 9.0 59 89 64.1 52.1 29.936 7.25 0.0 0 0.11 0.06 0.30 0.30
05/05/26 5:47:20 AM 39 0.0 9.0 59 89 64.1 52.0 29.936 7.25 0.0 0 0.11 0.06 0.30 0.30
05/05/26 5:48:33 AM 40 1.0 9.0 59 89 64.0 52.0 29.937 7.25 0.0 0 0.11 0.05 0.30 0.30
05/05/26 5:49:27 AM 40 0.0 9.0 59 89 64.0 52.0 29.936 7.25 0.0 0 0.11 0.05 0.30 0.30
05/05/26 5:50:16 AM 39 0.0 9.0 59 89 64.0 52.0 29.934 7.25 0.0 0 0.11 0.04 0.30 0.30
05/05/26 5:51:26 AM 39 0.0 9.0 59 89 63.9 52.1 29.934 7.25 0.0 0 0.11 0.04 0.30 0.30
05/05/26 5:52:18 AM 39 0.0 9.0 59 89 63.9 52.0 29.933 7.25 0.0 0 0.11 0.04 0.30 0.30
05/05/26 5:53:31 AM 39 0.0 9.0 59 89 63.8 52.0 29.933 7.25 0.0 0 0.11 0.04 0.30 0.30
05/05/26 5:54:20 AM 38 0.0 9.0 59 89 63.7 52.0 29.934 7.25 0.0 0 0.11 0.00 0.30 0.30
05/05/26 5:55:33 AM 39 0.0 9.0 59 89 63.8 52.0 29.934 7.25 0.0 0 0.11 0.00 0.30 0.30
05/05/26 5:56:22 AM 38 0.0 9.0 59 89 63.7 52.0 29.933 7.25 0.0 0 0.11 0.00 0.30 0.30
05/05/26 5:57:35 AM 40 0.0 9.0 60 89 63.7 52.1 29.933 7.26 0.0 0 0.12 0.00 0.30 0.30
05/05/26 5:58:24 AM 38 0.0 9.0 60 89 63.6 52.0 29.933 7.26 0.0 0 0.12 0.00 0.30 0.30
05/05/26 5:59:15 AM 39 0.0 9.0 60 89 63.6 52.0 29.933 7.26 0.0 0 0.12 0.00 0.30 0.30
05/05/26 6:00:31 AM 39 0.0 9.0 60 89 63.6 52.1 29.936 7.26 0.0 0 0.12 0.00 0.30 0.30
05/05/26 6:01:20 AM 40 1.0 9.0 60 89 63.5 52.0 29.936 7.26 0.0 0 0.12 0.00 0.30 0.00
05/05/26 6:02:30 AM 40 2.0 9.0 60 89 63.5 52.0 29.934 7.26 0.0 0 0.12 0.00 0.30 0.00
05/05/26 6:03:22 AM 38 2.0 9.0 61 89 63.5 52.1 29.935 7.26 0.0 0 0.12 0.00 0.30 0.00
05/05/26 6:04:35 AM 38 2.0 9.0 61 89 63.4 52.1 29.935 7.26 0.0 0 0.12 0.00 0.30 0.00
05/05/26 6:05:27 AM 38 1.0 9.0 61 89 63.5 52.1 29.936 7.26 0.0 0 0.12 0.00 0.30 0.00
05/05/26 6:06:19 AM 38 2.0 9.0 61 89 63.4 52.1 29.934 7.26 0.0 0 0.12 0.00 0.30 0.00
05/05/26 6:07:26 AM 38 1.0 9.0 61 89 63.4 52.1 29.936 7.26 0.0 0 0.12 0.00 0.30 0.00
05/05/26 6:08:17 AM 40 0.0 9.0 61 89 63.4 52.1 29.935 7.26 0.0 0 0.12 0.00 0.30 0.00
05/05/26 6:09:21 AM 38 0.0 9.0 61 89 63.4 52.1 29.934 7.26 0.0 0 0.12 0.00 0.30 0.00
05/05/26 6:10:31 AM 40 0.0 9.0 61 89 63.3 52.1 29.935 7.26 0.0 0 0.12 0.00 0.30 0.00
05/05/26 6:11:26 AM 39 1.0 9.0 61 89 63.3 52.1 29.935 7.26 0.0 5 0.12 0.00 0.30 0.00
05/05/26 6:12:30 AM 39 1.0 9.0 61 89 63.2 52.1 29.935 7.26 0.0 5 0.12 0.00 0.30 0.00
05/05/26 6:13:22 AM 39 0.0 9.0 61 89 63.2 52.1 29.936 7.26 0.0 7 0.12 0.00 0.30 0.00
05/05/26 6:14:35 AM 39 0.0 9.0 61 89 63.2 52.1 29.936 7.26 0.0 7 0.12 0.00 0.30 0.00
05/05/26 6:15:27 AM 39 0.0 9.0 61 89 63.2 52.1 29.936 7.26 0.0 7 0.12 0.00 0.30 0.00
05/05/26 6:16:19 AM 40 0.0 9.0 61 89 63.2 52.1 29.936 7.26 0.0 7 0.12 0.00 0.30 0.00
05/05/26 6:17:29 AM 38 0.0 9.0 61 89 63.2 52.1 29.937 7.26 0.0 7 0.12 0.00 0.30 0.00
05/05/26 6:18:17 AM 40 0.0 9.0 61 89 63.1 52.1 29.937 7.26 0.0 9 0.12 0.00 0.30 0.00
05/05/26 6:19:30 AM 40 3.0 9.0 61 89 63.2 52.1 29.937 7.26 0.0 9 0.12 0.00 0.30 0.00
05/05/26 6:20:22 AM 40 4.0 9.0 61 89 63.1 52.1 29.937 7.26 0.0 9 0.12 0.00 0.30 0.00
05/05/26 6:21:35 AM 38 4.0 9.0 61 89 63.1 52.1 29.937 7.26 0.0 9 0.12 0.00 0.30 0.00
05/05/26 6:22:27 AM 40 3.0 9.0 61 89 63.1 52.1 29.935 7.26 0.0 11 0.12 0.00 0.30 0.00
05/05/26 6:23:37 AM 38 3.0 9.0 61 89 63.1 52.1 29.937 7.26 0.0 12 0.12 0.00 0.30 0.00
05/05/26 6:24:29 AM 38 1.0 9.0 61 89 63.0 52.0 29.934 7.26 0.0 12 0.12 0.00 0.30 0.00
05/05/26 6:25:21 AM 38 2.0 9.0 61 89 63.1 52.0 29.937 7.26 0.0 14 0.12 0.00 0.30 0.00
05/05/26 6:26:31 AM 38 1.0 9.0 61 89 63.0 52.0 29.934 7.26 0.0 16 0.12 0.00 0.30 0.00
05/05/26 6:27:23 AM 39 2.0 9.0 61 89 63.0 52.0 29.935 7.26 0.0 18 0.12 0.00 0.30 0.00
05/05/26 6:28:32 AM 38 1.0 9.0 61 89 63.1 51.9 29.932 7.26 0.0 19 0.12 0.00 0.30 0.00
05/05/26 6:29:24 AM 38 1.0 9.0 61 89 63.0 51.9 29.936 7.26 0.0 23 0.12 0.00 0.30 0.00
05/05/26 6:30:37 AM 38 0.0 9.0 61 89 63.0 51.9 29.936 7.26 0.0 26 0.12 0.00 0.30 0.00
05/05/26 6:31:29 AM 39 1.0 9.0 61 89 62.9 51.9 29.936 7.26 0.0 28 0.12 0.00 0.30 0.00
05/05/26 6:32:21 AM 39 1.0 9.0 61 89 63.0 51.9 29.935 7.26 0.0 30 0.12 0.00 0.30 0.00
05/05/26 6:33:34 AM 39 1.0 9.0 61 89 62.9 51.9 29.934 7.26 0.0 30 0.12 0.00 0.30 0.00
05/05/26 6:34:20 AM 39 0.0 9.0 61 89 62.9 51.9 29.934 7.26 0.0 32 0.12 0.00 0.30 0.00
05/05/26 6:35:36 AM 39 0.0 9.0 61 89 62.9 51.9 29.935 7.26 0.0 32 0.12 0.00 0.30 0.00
05/05/26 6:36:25 AM 39 0.0 9.0 61 89 62.9 51.9 29.934 7.26 0.0 32 0.12 0.00 0.30 0.00
05/05/26 6:37:17 AM 39 0.0 9.0 61 89 62.8 51.9 29.932 7.26 0.0 32 0.12 0.00 0.30 0.00
05/05/26 6:38:30 AM 38 0.0 9.0 61 89 62.8 51.9 29.932 7.26 0.0 32 0.12 0.00 0.30 0.00
05/05/26 6:39:18 AM 38 0.0 9.0 61 89 62.8 51.9 29.931 7.26 0.0 32 0.12 0.00 0.30 0.00
05/05/26 6:40:31 AM 40 0.0 9.0 61 89 62.7 51.9 29.935 7.26 0.0 35 0.12 0.00 0.30 0.00
05/05/26 6:41:20 AM 38 0.0 9.0 61 89 62.8 51.9 29.931 7.26 0.0 35 0.12 0.00 0.30 0.00
05/05/26 6:42:33 AM 39 0.0 9.0 61 89 62.7 51.9 29.933 7.26 0.0 37 0.12 0.00 0.30 0.00
05/05/26 6:43:25 AM 39 0.0 9.0 61 89 62.7 51.9 29.932 7.26 0.0 40 0.12 0.00 0.30 0.00
05/05/26 6:44:17 AM 39 0.0 9.0 62 89 62.7 51.9 29.933 7.26 0.0 42 0.12 0.00 0.30 0.00
05/05/26 6:45:48 AM 38 2.0 9.0 62 89 62.7 51.9 29.934 7.26 0.0 42 0.12 0.00 0.30 0.00
05/05/26 6:46:19 AM 39 1.0 9.0 62 89 62.7 51.9 29.932 7.26 0.0 42 0.12 0.00 0.30 0.00
05/05/26 6:47:29 AM 39 0.0 9.0 62 89 62.6 52.0 29.933 7.26 0.0 40 0.12 0.00 0.30 0.00
05/05/26 6:48:20 AM 38 0.0 9.0 62 89 62.7 52.0 29.933 7.26 0.0 37 0.12 0.00 0.30 0.00
05/05/26 6:49:34 AM 38 0.0 9.0 62 90 62.7 52.0 29.934 7.26 0.0 33 0.12 0.00 0.30 0.00
05/05/26 6:50:22 AM 38 0.0 9.0 62 90 62.6 52.0 29.937 7.26 0.0 30 0.12 0.00 0.30 0.00
05/05/26 6:51:32 AM 39 0.0 9.0 62 90 62.6 52.1 29.936 7.26 0.0 26 0.12 0.00 0.30 0.00
05/05/26 6:52:24 AM 38 0.0 9.0 62 90 62.7 52.1 29.937 7.26 0.0 26 0.12 0.00 0.30 0.00
05/05/26 6:53:16 AM 39 0.0 9.0 62 90 62.6 52.1 29.935 7.26 0.0 26 0.12 0.00 0.30 0.00
05/05/26 6:54:32 AM 39 0.0 9.0 62 90 62.6 52.1 29.936 7.26 0.0 26 0.12 0.00 0.30 0.00
05/05/26 6:55:21 AM 38 0.0 9.0 62 90 62.6 52.1 29.937 7.26 0.0 26 0.12 0.00 0.30 0.00
05/05/26 6:56:31 AM 38 0.0 9.0 62 90 62.6 52.1 29.936 7.26 0.0 25 0.12 0.00 0.30 0.00
05/05/26 6:57:23 AM 39 1.0 9.0 62 90 62.6 52.1 29.938 7.26 0.0 25 0.12 0.00 0.30 0.00
05/05/26 6:58:33 AM 39 0.0 9.0 62 90 62.6 52.1 29.939 7.26 0.0 23 0.12 0.00 0.30 0.00
05/05/26 6:59:28 AM 40 0.0 9.0 62 90 62.6 52.2 29.935 7.26 0.0 23 0.12 0.00 0.30 0.00
05/05/26 7:00:20 AM 38 0.0 9.0 62 90 62.5 52.2 29.937 7.26 0.0 21 0.12 0.00 0.30 0.00
05/05/26 7:01:27 AM 38 0.0 9.0 62 90 62.6 52.2 29.939 7.26 0.0 21 0.12 0.00 0.30 0.00
05/05/26 7:02:18 AM 38 0.0 9.0 62 90 62.6 52.2 29.938 7.26 0.0 21 0.12 0.00 0.30 0.00
05/05/26 7:03:31 AM 38 0.0 9.0 62 90 62.6 52.2 29.939 7.26 0.0 21 0.12 0.00 0.30 0.00
05/05/26 7:04:23 AM 38 0.0 9.0 62 90 62.5 52.2 29.936 7.26 0.0 23 0.12 0.00 0.30 0.00
05/05/26 7:05:33 AM 38 0.0 9.0 62 90 62.5 52.2 29.939 7.26 0.0 23 0.12 0.00 0.30 0.00
05/05/26 7:06:22 AM 38 0.0 9.0 62 90 62.5 52.2 29.939 7.26 0.0 26 0.12 0.00 0.30 0.00
05/05/26 7:07:35 AM 39 0.0 9.0 62 90 62.5 52.2 29.939 7.26 0.0 28 0.12 0.00 0.30 0.00
05/05/26 7:08:27 AM 38 0.0 9.0 62 90 62.5 52.2 29.937 7.26 0.0 30 0.12 0.00 0.30 0.00
05/05/26 7:09:19 AM 38 0.0 9.0 62 90 62.5 52.3 29.937 7.26 0.0 30 0.12 0.00 0.30 0.00
05/05/26 7:10:29 AM 39 0.0 9.0 62 90 62.5 52.2 29.937 7.26 0.0 26 0.12 0.00 0.30 0.00
05/05/26 7:11:21 AM 40 0.0 9.0 62 90 62.5 52.2 29.939 7.26 0.0 26 0.12 0.00 0.30 0.00
05/05/26 7:12:31 AM 39 0.0 9.0 62 90 62.5 52.2 29.942 7.26 0.0 18 0.12 0.00 0.30 0.00
05/05/26 7:13:23 AM 38 0.0 9.0 63 90 62.5 52.2 29.938 7.26 0.0 14 0.12 0.00 0.30 0.00
05/05/26 7:14:36 AM 38 0.0 9.0 63 90 62.5 52.3 29.938 7.26 0.0 12 0.12 0.00 0.30 0.00
05/05/26 7:15:31 AM 38 4.0 9.0 63 90 62.5 52.3 29.940 7.26 0.0 12 0.12 0.00 0.30 0.00
05/05/26 7:16:19 AM 38 3.0 9.0 64 90 62.5 52.3 29.942 7.26 0.0 12 0.12 0.00 0.30 0.00
05/05/26 7:17:30 AM 38 3.0 9.0 64 90 62.4 52.3 29.944 7.26 0.0 19 0.12 0.00 0.30 0.00
05/05/26 7:18:21 AM 38 5.0 9.0 64 90 62.5 52.3 29.942 7.26 0.0 25 0.12 0.00 0.30 0.00
05/05/26 7:19:34 AM 39 4.0 9.0 64 90 62.5 52.3 29.943 7.26 0.0 30 0.12 0.00 0.30 0.00
05/05/26 7:20:23 AM 36 3.0 9.0 64 90 62.5 52.3 29.943 7.26 0.0 37 0.12 0.00 0.30 0.00
05/05/26 7:21:18 AM 34 3.0 9.0 64 90 62.4 52.3 29.946 7.26 0.0 44 0.12 0.00 0.30 0.00
05/05/26 7:22:25 AM 38 3.0 9.0 64 90 62.4 52.3 29.943 7.26 0.0 51 0.12 0.00 0.30 0.00
05/05/26 7:23:17 AM 38 2.0 9.0 64 90 62.4 52.3 29.942 7.26 0.0 56 0.12 0.00 0.30 0.00
05/05/26 7:24:27 AM 36 1.0 9.0 64 90 62.4 52.3 29.944 7.26 0.0 58 0.12 0.00 0.30 0.00
05/05/26 7:25:22 AM 36 0.0 9.0 64 90 62.4 52.3 29.943 7.26 0.0 60 0.12 0.00 0.30 0.00
05/05/26 7:26:32 AM 36 0.0 9.0 64 90 62.4 52.3 29.945 7.26 0.0 62 0.12 0.00 0.30 0.00
05/05/26 7:27:27 AM 36 0.0 9.0 64 90 62.4 52.3 29.943 7.26 0.0 62 0.12 0.00 0.30 0.00
05/05/26 7:28:34 AM 38 2.0 9.0 64 90 62.4 52.3 29.942 7.26 0.0 58 0.12 0.00 0.30 0.00
05/05/26 7:29:26 AM 35 2.0 9.0 64 90 62.4 52.4 29.945 7.26 0.0 58 0.12 0.00 0.30 0.00
05/05/26 7:30:39 AM 32 3.0 9.0 64 90 62.4 52.4 29.946 7.26 0.0 60 0.12 0.00 0.30 0.00
05/05/26 7:31:31 AM 34 1.0 9.0 64 90 62.4 52.4 29.944 7.26 0.0 60 0.12 0.00 0.30 0.00
05/05/26 7:32:22 AM 34 0.0 9.0 64 90 62.4 52.4 29.943 7.26 0.0 62 0.12 0.00 0.30 0.00
05/05/26 7:33:29 AM 32 0.0 9.0 64 90 62.4 52.4 29.944 7.26 0.0 63 0.12 0.00 0.30 0.00
05/05/26 7:34:21 AM 31 0.0 9.0 64 90 62.4 52.4 29.944 7.26 0.0 65 0.12 0.00 0.30 0.00
05/05/26 7:35:34 AM 32 0.0 9.0 64 90 62.4 52.4 29.942 7.26 0.0 67 0.12 0.00 0.30 0.00
05/05/26 7:36:26 AM 32 0.0 9.0 64 90 62.3 52.4 29.944 7.26 0.0 67 0.12 0.00 0.30 0.00
05/05/26 7:37:18 AM 34 1.0 9.0 64 90 62.3 52.4 29.940 7.26 0.0 69 0.12 0.00 0.30 0.00
05/05/26 7:38:31 AM 36 1.0 9.0 64 90 62.3 52.4 29.940 7.26 0.0 70 0.12 0.00 0.30 0.00
05/05/26 7:39:17 AM 35 1.0 9.0 64 90 62.4 52.4 29.947 7.26 0.0 72 0.12 0.00 0.30 0.00
05/05/26 7:40:30 AM 35 2.0 9.0 64 90 62.3 52.4 29.945 7.26 0.0 77 0.12 0.00 0.30 0.00
05/05/26 7:41:19 AM 34 1.0 9.0 64 90 62.3 52.5 29.944 7.26 0.0 77 0.12 0.00 0.30 0.00
05/05/26 7:42:32 AM 32 1.0 9.0 64 90 62.3 52.5 29.945 7.26 0.0 77 0.12 0.00 0.30 0.00
05/05/26 7:43:24 AM 32 2.0 9.0 64 90 62.3 52.5 29.945 7.26 0.0 76 0.12 0.00 0.30 0.00
05/05/26 7:44:31 AM 31 1.0 9.0 64 90 62.3 52.5 29.945 7.26 0.0 74 0.12 0.00 0.30 0.00
05/05/26 7:45:26 AM 36 2.0 9.0 64 90 62.3 52.5 29.945 7.26 0.0 72 0.12 0.00 0.30 0.00
05/05/26 7:46:18 AM 28 1.0 9.0 64 90 62.3 52.5 29.945 7.26 0.0 72 0.12 0.00 0.30 0.00
05/05/26 7:47:28 AM 32 2.0 9.0 64 90 62.3 52.5 29.948 7.26 0.0 69 0.12 0.00 0.30 0.00
05/05/26 7:48:20 AM 35 2.0 9.0 64 90 62.3 52.6 29.947 7.26 0.0 67 0.12 0.00 0.30 0.00
05/05/26 7:49:27 AM 34 2.0 9.0 64 90 62.3 52.6 29.946 7.26 0.0 67 0.12 0.00 0.30 0.00
05/05/26 7:50:19 AM 31 2.0 9.0 64 90 62.3 52.6 29.945 7.26 0.0 67 0.12 0.00 0.30 0.00
05/05/26 7:51:29 AM 34 2.0 9.0 64 90 62.3 52.6 29.947 7.26 0.0 69 0.12 0.00 0.30 0.00
05/05/26 7:52:23 AM 32 2.0 9.0 64 90 62.3 52.6 29.948 7.26 0.0 69 0.12 0.00 0.30 0.00
05/05/26 7:53:33 AM 35 2.0 9.0 64 90 62.3 52.6 29.947 7.26 0.0 69 0.12 0.00 0.30 0.00
05/05/26 7:54:25 AM 35 2.0 9.0 64 90 62.3 52.6 29.946 7.26 0.0 67 0.12 0.00 0.30 0.00
05/05/26 7:55:35 AM 30 2.0 9.0 64 90 62.3 52.6 29.947 7.26 0.0 62 0.12 0.00 0.30 0.00
05/05/26 7:56:27 AM 31 2.0 9.0 64 90 62.3 52.6 29.950 7.26 0.0 58 0.12 0.00 0.30 0.00
05/05/26 7:57:16 AM 32 3.0 9.0 64 90 62.3 52.6 29.949 7.26 0.0 58 0.12 0.00 0.30 0.00
05/05/26 7:58:29 AM 32 2.0 9.0 64 90 62.3 52.6 29.948 7.26 0.0 54 0.12 0.00 0.30 0.00
05/05/26 7:59:21 AM 35 1.0 9.0 64 90 62.3 52.6 29.947 7.26 0.0 49 0.12 0.00 0.30 0.00

University Police wind advisory reference

For campus closure information please call the campus Emergency Hotline at (909) 537-5999

© All rights reserved. Unauthorized duplication or distribution is prohibited

Never base important decisions on this or any weather information obtained from the Internet

California State University, San Bernardino
5500 University Parkway, San Bernardino, CA. 92407
Phone: (909) 537-5108, Email: Weather Webmaster
Last Updated: